Aeroporto :
LOGIN :

Iscrizione | Disclaimer

   EN    FR    IT 

 










Sommario :    VFR   VFR Marginale   IFR   IFR Intensivo   IFR Molto Intensivo
Visibilità : 
Base nubi : 
>= 8 km
>= 3000ft
5 / 8 km
1000 / 3000 ft
1500m / 5 km
500 / 1000 ft
800 / 1500m
200 / 500 ft
< 800m
< 200 ft
Simboli :   Temporali  Nebbia  Neve Forte  Precipitazioni Forti  Vento > 20 kt
SIGMETs :   Varie  Temporali  Ghiacco  Turbolenza  Onda orograficha  Ceneri Vulcaniche






- Altitudine del aeroporto : 13 ft
- Codice IATA : OST


EBOS - Oostend bruges Int.

ULTIMO METAR :
  • 271320Z 26020G30KT 9999 FEW030 17/11 Q1013 NOSIG

METARs OBSOLETI :
  • 271250Z 24014KT 9999 FEW014 SCT030 17/12 Q1012 TEMPO 24015G25KT
  • 271220Z 23019KT 9999 FEW014 16/13 Q1012 RESHRA TEMPO 23018G28KT
  • 271150Z 23017G28KT 9999 -RA FEW014 16/13 Q1011 RESHRA NOSIG
  • 271120Z 19016KT 3500 SHRA FEW006 SCT014TCU BKN018 16/15 Q1010 BECMG 25018G32KT 6000 NSW

TAF TAF EBOS
Valido dal 27 a 12 ore il 28 a 18 ore UTC


271115Z 2712/2818 24010KT 9999 BKN020
TEMPO 2712/2715 24015G25KT



MetMap, La meteo Aeronautica in un colpo d'occhio ! - Copyright ORBIFLY Dicembre 2007 - Disclaimer

ORBIFLY MET'MAP TEAM :

Programmazione e sviluppo : Alexandra Zaïnal
Concezione : Baudouin d'Aumeries
Aiuto per la programmazione : Marc-Olivier Méhu
Supporto tecnico e logistico : Manuel Goepfert
Aiuto per la traduzione : Arnaldo La Scala

Contatto : metmap@orbifly.com




FONTI E CREDITI :

   NOAA